Regional Weather Roundup
Issued by NWS

Home | Current Version | Previous Version | Text Only | Print | Product List | Glossary On
Versions: 1 2 3 4 5 6 7 8 9 10 11 12 13 14 15 16 17 18 19 20 21 22 23 24 25 26 27 28 29 30 31 32 33 34 35 36 37 38 39 40 41 42 43 44 45 46 47 48 49 50
000
ASUS43 KDMX 230806
RWRIA

WEATHER ROUNDUP FOR IOWA
NATIONAL WEATHER SERVICE DES MOINES IA
300 AM CDT SAT JUN 23 2018

NOTE: "FAIR" INDICATES FEW OR NO CLOUDS BELOW 12,000 FEET WITH NO
SIGNIFICANT WEATHER AND/OR OBSTRUCTIONS TO VISIBILITY.

* - THESE STATIONS ARE NOT NWS STATIONS...THUS NOT UNDER NWS
QUALITY CONTROL.  THEY ALSO DO NOT REPORT WEATHER SUCH
AS PRECIPITATION OR FOG.

IAZ001>003-012>014-020>022-031>034-043>046-230900-
   NORTHWEST IOWA

CITY           SKY/WX    TMP DP  RH WIND       PRES   REMARKS
CARROLL *      CLOUDY    59  59 100 CALM      29.80S
CHEROKEE *     CLEAR     58  58 100 CALM      29.81F
DENISON *      PTCLDY    57  57 100 CALM      29.82S FOG
LE MARS *      PTCLDY    61  61 100 CALM      29.80F
ORANGE CITY *  CLOUDY    63  61  94 CALM      29.81S
SHELDON *      CLEAR     59  57  94 CALM      29.80S
SIOUX CITY     MOCLDY    59  58  96 SE5       29.79F FOG
SPENCER        CLEAR     62  60  93 E3        29.81F
STORM LAKE *   PTCLDY    59  57  94 W5        29.81F
$$

IAZ055>058-069>071-079>083-090>094-230900-
   SOUTHWEST IOWA

CITY           SKY/WX    TMP DP  RH WIND       PRES   REMARKS
ATLANTIC *     CLOUDY    63  63 100 CALM      29.81R
AUDUBON *      CLOUDY    63  59  88 CALM      29.82R
CLARINDA *     CLOUDY    66  64  94 CALM      29.82R
COUNCIL BLFS * PTCLDY    61 N/A N/A CALM      29.81S
CRESTON *      CLOUDY    64  63  94 CALM      29.82S
HARLAN  *        N/A    N/A N/A N/A MISG        N/A
LAMONI         CLOUDY    64  62  93 NW5       29.80S
RED OAK *      CLOUDY    61  61 100 CALM      29.81R
SHENANDOAH *   FOG       59  59 100 CALM      29.81S VSB<1/4
$$

IAZ047>049-059>061-072>074-084-230900-
   CENTRAL IOWA

CITY           SKY/WX    TMP DP  RH WIND       PRES   REMARKS
AMES           CLEAR     61  60  97 CALM      29.79F FOG
BOONE *        CLEAR     61  61 100 CALM      29.79F
CHARITON *     CLOUDY    64  63  94 N3        29.78F
DES MOINES     PTCLDY    65  61  87 NW5       29.78F
GRINNELL*      CLOUDY    63  60  90 NE3       29.80F
KNOXVILLE *    CLOUDY    64  61  88 CALM      29.77F
MARSHALLTOWN   PTCLDY    62  62 100 NE5       29.78F
NEWTON *       CLOUDY    63  61  94 NE3       29.79F
PELLA *        MOCLDY    64  62  91 CALM      29.79F
PERRY *        FAIR      64  64  99 CALM      29.80S
$$

IAZ004>006-015-016-023>025-035-036-230900-
   NORTH CENTRAL IOWA

CITY           SKY/WX    TMP DP  RH WIND       PRES   REMARKS
ALGONA *       CLEAR     64  61  88 SE3       29.81F
CLARION *      CLOUDY    61  59  94 E6        29.81S
ESTHERVILLE    CLEAR     62  60  93 N3        29.81F
FORT DODGE *   FOG       59  57  94 CALM      29.81S VSB 3/4
MASON CITY     CLOUDY    59  59 100 E3        29.82F
FOREST CITY *  FOG       61  61 100 CALM      29.81F VSB 1/2
WEBSTER CITY * CLEAR     61  59  94 N5        29.79S
IOWA FALLS *   FAIR      62  60  93 E3        29.81F
$$

IAZ007>011-017>019-026>030-037>042-050>054-066-230900-
   NORTHEAST IOWA

CITY           SKY/WX    TMP DP  RH WIND       PRES   REMARKS
CEDAR RAPIDS   CLOUDY    64  61  90 N5        29.79F
CHARLES CITY * MOCLDY    63  61  94 E6        29.81F
CLINTON *      CLOUDY    62  60  93 NW7       29.80R
DECORAH *      CLOUDY    63  63 100 CALM      29.81F
DUBUQUE        MOCLDY    60  56  86 W7        29.82R
MONTICELLO *   MOCLDY    61  61 100 CALM      29.80F
OELWEIN *      CLOUDY    63  63 100 CALM      29.82F
WATERLOO       CLOUDY    62  62 100 E7        29.79F
$$

IAZ064-065-067-068-078-230900-
   EAST CENTRAL IOWA

CITY           SKY/WX    TMP DP  RH WIND       PRES   REMARKS
DAVENPORT      CLOUDY    62  59  90 NW5       29.80R
IOWA CITY      CLOUDY    66  59  78 N8        29.80F
MT. PLEASANT * CLOUDY    63  63 100 CALM      29.77F
MUSCATINE *    CLOUDY    64  61  88 CALM      29.78F
QUAD CITIES    CLOUDY    65  62  90 NW5       29.77R
$$

IAZ062-063-075>077-085>089-095>099-230900-
   SOUTHEAST IOWA

CITY           SKY/WX    TMP DP  RH WIND       PRES   REMARKS
BURLINGTON     CLOUDY    64  60  87 CALM      29.77S
FAIRFIELD *    CLOUDY    64  63  94 N5        29.77F
FORT MADISON * CLOUDY    64  64 100 CALM      29.77F
KEOKUK *       CLOUDY    64  63  94 CALM      29.76F
OSKALOOSA *    CLOUDY    63  61  94 NE3       29.78F
CENTERVILLE *    N/A     63  63 100 CALM      29.79S
OTTUMWA        CLOUDY    64  61  90 N3        29.77F
WASHINGTON *   CLOUDY    64  64 100 N5        29.79F
$$

ABBREVIATIONS USED IN REMARKS
   TC - TEMPERATURES IN CELSIUS
  WCI - WIND CHILL INDEX
   HX - HEAT INDEX
  VSB - VISIBILITY
$$





USA.gov is the U.S. government's official web portal to all federal, state and local government web resources and services.